Location: Minneapolis
(44.9800°N, 93.2640°W)
Time: 14:47:41
(UTC-06:00)

N. Korean satellite - Visible Passes

Search period start: 16 December 2017 00:00
Search period end: 26 December 2017 00:00
Orbit: 461 x 513 km, 97.2° (Epoch: 16 December)

Date Brightness Start Highest point End Pass type
(mag) Time Alt. Az. Time Alt. Az. Time Alt. Az.
16 Dec 6.6 07:07:07 10° N 07:10:51 86° WNW 07:14:29 10° SSW visible
16 Dec 6.9 17:44:53 10° SSE 17:48:28 47° ENE 17:52:05 10° N visible
16 Dec 9.9 19:20:22 10° WSW 19:22:14 13° W 19:24:07 10° WNW visible
17 Dec 7.8 06:43:40 10° NNE 06:47:15 47° E 06:50:46 10° S visible
17 Dec 7.7 17:21:54 10° SE 17:25:01 26° ENE 17:28:10 10° NNE visible
17 Dec 9.1 18:55:24 10° SSW 18:58:28 24° W 19:01:35 10° NW visible
18 Dec 9.2 06:20:30 10° NE 06:23:34 24° E 06:26:35 10° SSE visible
18 Dec 7.8 18:31:12 10° S 18:34:48 45° W 18:38:26 10° NNW visible
19 Dec 9.9 05:57:56 10° ENE 05:59:48 13° E 06:01:39 10° ESE visible
19 Dec 6.6 18:07:27 10° SSE 18:11:12 90° W 18:15:00 10° NNW visible
20 Dec 6.6 07:06:21 10° NNE 07:10:03 87° WNW 07:13:39 10° SSW visible
20 Dec 6.9 17:44:05 10° SSE 17:47:40 46° ENE 17:51:18 10° N visible
20 Dec 9.9 19:19:30 10° WSW 19:21:26 14° W 19:23:23 10° WNW visible
21 Dec 7.8 06:42:53 10° NNE 06:46:26 46° E 06:49:54 10° S visible
21 Dec 7.7 17:21:07 10° SE 17:24:13 25° ENE 17:27:22 10° NNE visible
21 Dec 9.0 18:54:33 10° SSW 18:57:40 24° W 19:00:49 10° NW visible
22 Dec 9.2 06:19:43 10° NE 06:22:44 24° E 06:25:42 10° SSE visible
22 Dec 7.8 18:30:22 10° S 18:33:59 46° W 18:37:38 10° NNW visible
23 Dec 9.9 05:57:12 10° ENE 05:58:57 13° E 06:00:41 10° ESE visible
23 Dec 6.6 18:06:37 10° SSE 18:10:22 89° ENE 18:14:09 10° NNW visible
24 Dec 6.6 07:05:32 10° NNE 07:09:12 88° W 07:12:45 10° SSW visible
24 Dec 6.9 17:43:15 10° SE 17:46:50 45° ENE 17:50:27 10° N visible
24 Dec 9.9 19:18:37 10° WSW 19:20:35 14° W 19:22:34 10° WNW visible
25 Dec 7.8 06:42:04 10° NNE 06:45:34 45° E 06:48:59 10° S visible
25 Dec 7.7 17:20:16 10° SE 17:23:23 25° ENE 17:26:30 10° NNE visible
25 Dec 9.0 18:53:41 10° SSW 18:56:49 25° W 18:59:57 10° NW visible
